Home   Weather   Khon Kaen   Past weeks

Flag for Thailand Past Weather in Khon Kaen, Thailand — Yesterday and Last 2 Weeks

Now
91 °F

Scattered clouds.


Feels Like: 105 °F
Forecast: 78 / 91 °F
Wind: 3 mph from North

Location: Khon Kaen Airport

Current Time: Sep 27, 2016 at 3:52:33 PM

Latest Report: Sep 27, 2016 at 3:00 PM


Visibility: N/A

Pressure: 29.68 "Hg

Humidity: 63%

Dew Point: 77 °F

Location of Khon KaenLocation

Past Weather in Khon Kaen — Graph

°F

Khon Kaen Temperature Yesterday

Maximum temperature yesterday: 90 °F (at 1:00 PM)
Minimum temperature yesterday: 77 °F (at 2:00 AM)
Average temperature yesterday: 81 °F

High & Low Weather Summary for the Past Weeks

 TemperatureHumidityPressure
High93 °F (Sep 16, 5:00 PM)100% (Sep 13, 4:00 AM)29.92 "Hg (Sep 13, 4:00 AM)
Low73 °F (Sep 13, 9:00 PM)59% (Sep 18, 2:00 PM)29.62 "Hg (Sep 14, 3:00 AM)
Average80 °F90%29.76 "Hg
* Reported Sep 12 2:00 PM — Sep 27 2:00 PM, Khon Kaen, Weather by CustomWeather, © 2016

Note: Actual official high and low records may vary slightly from our data, if they occured in-between our weather recording intervals... More about our weather records

Advertising

Khon Kaen Weather History for the Previous 24 Hours

Scroll right to see more
 ConditionsComfort  
Time TempWeatherWind HumidityBarometerVisibility
2:00 PM
Tue, Sep 27
91 °FScattered clouds.6 mph63%29.71 "HgN/A
1:00 PM86 °FScattered clouds.5 mph75%29.74 "HgN/A
12:00 PM86 °FBroken clouds.5 mph75%29.77 "HgN/A
11:00 AM84 °FBroken clouds.7 mph79%29.80 "HgN/A
10:00 AM82 °FBroken clouds.7 mph89%29.83 "HgN/A
9:00 AM79 °FBroken clouds.6 mph94%29.83 "HgN/A
8:00 AM77 °FBroken clouds.1 mph94%29.83 "HgN/A
7:00 AM75 °FScattered clouds.No wind100%29.80 "HgN/A
6:00 AM73 °FBroken clouds.No wind100%29.77 "HgN/A
5:00 AM73 °FPartly cloudy.5 mph100%29.77 "HgN/A
4:00 AM75 °FPartly cloudy.No wind100%29.74 "HgN/A
3:00 AM75 °FPassing clouds.1 mph100%29.77 "HgN/A
2:00 AM75 °FPartly cloudy.5 mph100%29.77 "HgN/A
1:00 AM75 °FThunderstorms. Partly cloudy.9 mph100%29.80 "Hg2 mi
12:00 AM75 °FThunderstorms. Partly cloudy.9 mph100%29.80 "Hg3 mi
11:00 PM
Mon, Sep 26
79 °FThunderstorms. Passing clouds.3 mph94%29.80 "Hg4 mi
10:00 PM79 °FPartly cloudy.2 mph100%29.80 "HgN/A
9:00 PM79 °FPassing clouds.1 mph100%29.77 "HgN/A
8:00 PM79 °FPassing clouds.5 mph100%29.74 "HgN/A
7:00 PM79 °FPassing clouds.2 mph100%29.74 "HgN/A
6:00 PM81 °FScattered clouds.2 mph89%29.71 "HgN/A
5:00 PM82 °FBroken clouds.5 mph84%29.68 "HgN/A
4:00 PM84 °FThunderstorms. Broken clouds.6 mph79%29.68 "HgN/A
3:00 PM88 °FPartly sunny.6 mph75%29.68 "HgN/A
Weather by CustomWeather, © 2016

See weather overviewHow to use our weather pages